Total_Precipitation_Accumulation
0.04 0.04 0.05 0.06 0.06 0.08 0.12 0.05 0.01 0.00 0.00 0.00 0.00 0.00 0.01 0.00 0.00 0.01 0.05 0.06 0.20 0.20 0.09 0.12 0.22 0.29 0.29 0.35 0.35 0.33 0.34 0.35 0.34
0.05 0.04 0.03 0.04 0.05 0.04 0.02 0.00 0.00 0.00 0.00 0.00 0.01 0.01 0.00 0.00 0.00 0.01 0.02 0.04 0.11 0.08 0.08 0.04 0.07 0.09 0.14 0.16 0.21 0.31 0.42 0.47 0.51
0.06 0.04 0.04 0.03 0.02 0.01 0.00 0.00 0.00 0.00 0.00 0.01 0.01 0.01 0.00 0.00 0.00 0.00 0.01 0.04 0.03 0.03 0.03 0.04 0.04 0.04 0.07 0.07 0.09 0.14 0.18 0.21 0.27
0.08 0.06 0.06 0.03 0.02 0.02 0.02 0.02 0.02 0.02 0.01 0.01 0.00 0.00 0.00 0.00 0.00 0.00 0.00 0.02 0.02 0.03 0.05 0.07 0.07 0.09 0.09 0.08 0.09 0.09 0.11 0.13 0.15
0.09 0.05 0.06 0.04 0.02 0.01 0.02 0.02 0.02 0.02 0.02 0.01 0.00 0.00 0.00 0.00 0.00 0.00 0.00 0.00 0.02 0.07 0.08 0.09 0.11 0.16 0.18 0.20 0.17 0.13 0.11 0.11 0.14
0.02 0.03 0.05 0.05 0.02 0.00 0.01 0.01 0.01 0.01 0.01 0.00 0.00 0.00 0.00 0.00 0.00 0.00 0.00 0.01 0.02 0.04 0.08 0.11 0.12 0.13 0.14 0.13 0.12 0.10 0.10 0.11 0.12
0.02 0.02 0.04 0.05 0.01 0.00 0.00 0.00 0.00 0.00 0.00 0.00 0.00 0.00 0.00 0.00 0.00 0.00 0.00 0.00 0.02 0.03 0.04 0.06 0.06 0.04 0.04 0.05 0.05 0.06 0.07 0.08 0.12
0.03 0.03 0.03 0.02 0.00 0.00 0.00 0.00 0.00 0.00 0.00 0.00 0.00 0.00 0.00 0.00 0.00 0.00 0.00 0.01 0.01 0.01 0.03 0.03 0.04 0.03 0.03 0.03 0.04 0.07 0.10 0.12 0.17
0.02 0.01 0.01 0.01 0.00 0.00 0.00 0.00 0.00 0.00 0.00 0.00 0.00 0.00 0.00 0.00 0.00 0.00 0.00 0.00 0.01 0.01 0.01 0.02 0.03 0.03 0.03 0.03 0.08 0.12 0.14 0.16 0.18
0.01 0.00 0.00 0.00 0.00 0.00 0.00 0.00 0.00 0.00 0.00 0.00 0.00 0.00 0.00 0.00 0.00 0.00 0.00 0.00 0.00 0.00 0.01 0.01 0.01 0.04 0.07 0.11 0.13 0.14 0.12 0.10 0.09
0.00 0.00 0.00 0.00 0.00 0.00 0.00 0.00 0.00 0.00 0.00 0.00 0.00 0.00 0.00 0.00 0.00 0.00 0.00 0.00 0.00 0.00 0.01 0.03 0.01 0.02 0.04 0.07 0.12 0.11 0.09 0.08 0.08
0.00 0.00 0.00 0.00 0.00 0.00 0.00 0.00 0.00 0.00 0.00 0.00 0.00 0.00 0.00 0.00 0.00 0.00 0.00 0.00 0.00 0.00 0.03 0.21 0.19 0.09 0.06 0.10 0.09 0.11 0.11 0.11 0.12
0.00 0.00 0.00 0.00 0.00 0.00 0.00 0.00 0.00 0.00 0.00 0.00 0.00 0.00 0.00 0.00 0.00 0.00 0.00 0.00 0.00 0.00 0.00 0.10 0.29 0.41 0.40 0.57 0.83 0.66 0.39 0.26 0.20
0.00 0.00 0.00 0.00 0.00 0.00 0.00 0.00 0.00 0.00 0.00 0.00 0.00 0.00 0.00 0.00 0.00 0.00 0.00 0.00 0.00 0.00 0.00 0.00 0.05 0.16 0.28 0.40 0.66 1.09 0.77 0.45 0.40
0.01 0.00 0.00 0.00 0.00 0.00 0.00 0.00 0.00 0.00 0.00 0.00 0.00 0.00 0.00 0.00 0.00 0.00 0.00 0.00 0.00 0.00 0.00 0.00 0.00 0.00 0.02 0.12 0.28 0.53 0.84 0.56 0.37
0.14 0.06 0.01 0.00 0.00 0.00 0.00 0.00 0.00 0.00 0.00 0.00 0.00 0.00 0.00 0.00 0.00 0.00 0.00 0.00 0.00 0.00 0.01 0.03 0.06 0.03 0.05 0.04 0.05 0.15 0.29 0.42 0.51
0.36 0.20 0.18 0.06 0.01 0.01 0.00 0.01 0.01 0.01 0.01 0.02 0.04 0.03 0.01 0.00 0.00 0.01 0.00 0.00 0.01 0.03 0.07 0.12 0.12 0.07 0.04 0.04 0.04 0.05 0.09 0.28 0.41
0.98 0.75 0.63 0.44 0.26 0.35 0.28 0.32 0.30 0.23 0.22 0.18 0.23 0.23 0.19 0.14 0.05 0.05 0.05 0.08 0.07 0.07 0.05 0.05 0.05 0.04 0.05 0.09 0.11 0.14 0.18 0.32 0.51
1.63 1.58 1.31 1.14 1.03 0.90 0.98 0.83 0.91 0.98 0.85 0.72 0.57 0.57 0.45 0.41 0.23 0.07 0.08 0.07 0.06 0.06 0.03 0.03 0.05 0.09 0.16 0.26 0.35 0.40 0.40 0.41 0.51
1.39 1.56 1.66 1.63 1.68 1.59 1.63 1.60 1.48 1.30 1.07 0.85 0.77 0.64 0.57 0.57 0.76 0.59 0.31 0.25 0.13 0.06 0.07 0.09 0.12 0.18 0.28 0.37 0.42 0.45 0.46 0.51 0.60